THOR ABLESTAR DEB, 409

Orbit data source: Space-Track

THOR ABLESTAR DEB, 409 is space debris in LEO originally from a launch on Thu, 29 Jun 1961 UTC launched from the Air Force Eastern Test Range (AFETR). Debris objects in space refer to the collection of defunct objects orbiting the Earth. Examples of debris include non-operational satellites, rocket bodies, and fragments generated from explosions, collisions, or faulty payload assembly.

Loading next visibility...
Identifier
409, 1961-015EJ
Orbit
LEO
Country
Flag of USUS
Related business
Manufacturer
Unknown
Mission
Spacecraft
Bus & Motor
Unknown
Mass
Unknown
Launch date (UTC)
1961-06-29 (65 years ago)
Launch vehicle
Unknown
Launch site
Air Force Eastern Test Range (AFETR)
Object type
Payload
Rocket body
Debris
Shape & HBR
Unknown shape, 0.1 m
Radar Cross Section
Small (<0.1 m²)

Expand to show TLE details & history
Last TLE update: 14 hours ago

TLE from 14 hours ago
0 THOR ABLESTAR DEB
1   409U 61015EJ  26036.24071420  .00001675  00000-0  68061-3 0  9996
2   409  66.7146 333.9160 0070178 271.8434  87.4627 14.28690720322451
Epoch: 2026-02-05T05:46Z
TLE epoch observation values (Epoch: 2026-02-05T05:46:37.706Z)
Latitude
-0.00004°
Longitude
111.8631°
Altitude
796.341 km
Speed
7.457 km/s
True Right ascension
22h 15m 39s
True Declination
0° 00' 00"
Sunlit
Object was in daylight at epoch
Visualization orbit readout
Latitude
Unknown
Longitude
Unknown
Altitude
Unknown
Speed
Unknown
Apparent Right ascension
Unknown
Apparent Declination
Unknown
Sunlit
N/A
Visualization observer readout
Local Sidereal Time
21:29:03
Azimuth
Unknown
Elevation
Unknown
Doppler factor
Unknown
Orbital elements
Apogee altitude
844.821 km
Perigee altitude
744.149 km
Semi-major axis
7,172.622 km
Eccentricity
0.00702
Inclination
66.7146°
RAAN
333.916°
Arg. of periapsis
271.8434°
True anomaly
88.26638°
Mean anomaly
87.4627°
Eccentric anomaly
87.86451°
Mean motion
3.57294 °/min
Orbital period
100.76 mins
BSTAR
0.00068061
Loading maneuver chart data...
Computing Atmospheric mass density...

Documentation

Showing up to 5 results
|